Time,TemperatureF,DewpointF,PressureIn,WindDirection,WindDirectionDegrees,WindSpeedMPH,WindSpeedGustMPH,Humidity,HourlyPrecipIn,Conditions,Clouds,dailyrainin,SoftwareType,DateUTC
2013-03-15 00:03:00,27.0,18.0,30.01,WNW,300,12.0,17.0,68,-99.99,,,-99.99,,2013-03-15 04:03:00,
2013-03-15 00:12:00,27.0,18.0,30.01,WNW,300,13.0,18.0,68,-99.99,,,-99.99,,2013-03-15 04:12:00,
2013-03-15 00:23:00,27.0,19.0,30.01,WNW,300,10.0,-999.0,73,-99.99,,,-99.99,,2013-03-15 04:23:00,
2013-03-15 00:33:00,27.0,19.0,30.01,WNW,300,10.0,16.0,73,-99.99,,,-99.99,,2013-03-15 04:33:00,
2013-03-15 00:43:00,27.0,19.0,30.01,WNW,300,10.0,-999.0,73,-99.99,,,-99.99,,2013-03-15 04:43:00,
2013-03-15 00:52:00,27.0,19.0,30.00,WNW,300,9.0,18.0,73,-99.99,,,-99.99,,2013-03-15 04:52:00,
2013-03-15 01:02:00,27.0,19.0,30.00,WNW,300,9.0,18.0,73,-99.99,,,-99.99,,2013-03-15 05:02:00,
2013-03-15 01:12:00,27.0,19.0,30.01,WNW,300,10.0,-999.0,73,-99.99,,,-99.99,,2013-03-15 05:12:00,
2013-03-15 01:22:00,27.0,19.0,30.01,WNW,300,10.0,-999.0,73,-99.99,,,-99.99,,2013-03-15 05:22:00,
2013-03-15 01:32:00,25.0,18.0,30.01,WNW,300,8.0,-999.0,73,-99.99,,,-99.99,,2013-03-15 05:32:00,
2013-03-15 01:42:00,25.0,18.0,30.01,WNW,290,6.0,-999.0,73,-99.99,,,-99.99,,2013-03-15 05:42:00,
2013-03-15 01:52:00,25.0,18.0,30.01,WNW,290,7.0,-999.0,73,-99.99,,,-99.99,,2013-03-15 05:52:00,
2013-03-15 02:02:00,25.0,18.0,30.01,WNW,290,7.0,-999.0,73,-99.99,,,-99.99,,2013-03-15 06:02:00,
2013-03-15 02:12:00,25.0,18.0,30.00,WNW,290,7.0,-999.0,73,-99.99,,,-99.99,,2013-03-15 06:12:00,
2013-03-15 02:22:00,25.0,19.0,30.00,WNW,290,7.0,-999.0,79,-99.99,,,-99.99,,2013-03-15 06:22:00,
2013-03-15 02:32:00,25.0,19.0,30.00,WNW,290,8.0,-999.0,79,-99.99,,,-99.99,,2013-03-15 06:32:00,
2013-03-15 02:42:00,25.0,19.0,30.00,West,280,8.0,-999.0,79,-99.99,,,-99.99,,2013-03-15 06:42:00,
2013-03-15 02:52:00,25.0,19.0,29.98,WNW,290,9.0,-999.0,79,-99.99,,,-99.99,,2013-03-15 06:52:00,
2013-03-15 03:02:00,25.0,19.0,29.98,WNW,290,9.0,-999.0,79,-99.99,,,-99.99,,2013-03-15 07:02:00,
2013-03-15 03:12:00,25.0,19.0,29.98,West,280,9.0,-999.0,79,-99.99,,,-99.99,,2013-03-15 07:12:00,
2013-03-15 03:22:00,25.0,19.0,29.97,West,280,6.0,-999.0,79,-99.99,,,-99.99,,2013-03-15 07:22:00,
2013-03-15 03:32:00,23.0,19.0,29.96,West,270,6.0,-999.0,85,-99.99,,,-99.99,,2013-03-15 07:32:00,
2013-03-15 03:42:00,21.0,19.0,29.96,West,270,7.0,-999.0,92,-99.99,,,-99.99,,2013-03-15 07:42:00,
2013-03-15 03:52:00,23.0,19.0,29.95,West,270,7.0,-999.0,85,-99.99,,,-99.99,,2013-03-15 07:52:00,
2013-03-15 04:02:00,23.0,19.0,29.95,West,270,7.0,-999.0,85,-99.99,,,-99.99,,2013-03-15 08:02:00,
2013-03-15 04:12:00,21.0,18.0,29.95,West,260,7.0,-999.0,85,-99.99,,,-99.99,,2013-03-15 08:12:00,
2013-03-15 04:23:00,21.0,18.0,29.94,WSW,250,3.0,-999.0,85,-99.99,,,-99.99,,2013-03-15 08:23:00,
2013-03-15 04:33:00,21.0,18.0,29.93,WSW,250,3.0,-999.0,85,-99.99,,,-99.99,,2013-03-15 08:33:00,
2013-03-15 04:42:00,21.0,18.0,29.93,West,260,5.0,-999.0,85,-99.99,,,-99.99,,2013-03-15 08:42:00,
2013-03-15 04:52:00,25.0,19.0,29.92,WSW,240,3.0,-999.0,79,-99.99,,,-99.99,,2013-03-15 08:52:00,
2013-03-15 05:02:00,25.0,19.0,29.92,WSW,240,3.0,-999.0,79,-99.99,,,-99.99,,2013-03-15 09:02:00,
2013-03-15 05:12:00,25.0,19.0,29.91,North,0,0.0,-999.0,79,-99.99,,,-99.99,,2013-03-15 09:12:00,
2013-03-15 05:22:00,27.0,23.0,29.90,West,260,5.0,-999.0,86,-99.99,,,-99.99,,2013-03-15 09:22:00,
2013-03-15 05:33:00,27.0,23.0,29.90,West,260,6.0,-999.0,86,-99.99,,,-99.99,,2013-03-15 09:33:00,
2013-03-15 05:43:00,27.0,23.0,29.89,West,260,7.0,-999.0,86,-99.99,,,-99.99,,2013-03-15 09:43:00,
2013-03-15 05:52:00,27.0,21.0,29.89,WSW,250,7.0,-999.0,79,-99.99,,,-99.99,,2013-03-15 09:52:00,
2013-03-15 06:03:00,27.0,21.0,29.89,WSW,250,7.0,-999.0,79,-99.99,,,-99.99,,2013-03-15 10:03:00,
2013-03-15 06:12:00,28.0,25.0,29.88,West,260,7.0,-999.0,86,-99.99,,,-99.99,,2013-03-15 10:12:00,
2013-03-15 06:23:00,28.0,25.0,29.87,WSW,240,6.0,-999.0,86,-99.99,,,-99.99,,2013-03-15 10:23:00,
2013-03-15 06:33:00,28.0,25.0,29.87,WSW,250,6.0,-999.0,86,-99.99,,,-99.99,,2013-03-15 10:33:00,
2013-03-15 06:42:00,28.0,25.0,29.86,WSW,250,6.0,-999.0,86,-99.99,,,-99.99,,2013-03-15 10:42:00,
2013-03-15 06:52:00,28.0,25.0,29.85,WSW,240,6.0,-999.0,86,-99.99,,,-99.99,,2013-03-15 10:52:00,
2013-03-15 07:03:00,28.0,25.0,29.85,WSW,240,6.0,-999.0,86,-99.99,,,-99.99,,2013-03-15 11:03:00,
2013-03-15 07:12:00,28.0,23.0,29.84,WSW,250,6.0,-999.0,79,-99.99,,,-99.99,,2013-03-15 11:12:00,
2013-03-15 07:22:00,28.0,21.0,29.83,WSW,250,7.0,-999.0,74,-99.99,,,-99.99,,2013-03-15 11:22:00,
2013-03-15 07:32:00,28.0,23.0,29.82,WSW,250,6.0,-999.0,79,-99.99,,,-99.99,,2013-03-15 11:32:00,
2013-03-15 07:42:00,28.0,23.0,29.82,WSW,250,7.0,-999.0,79,-99.99,,,-99.99,,2013-03-15 11:42:00,
2013-03-15 07:52:00,28.0,23.0,29.82,West,260,9.0,-999.0,79,-99.99,,,-99.99,,2013-03-15 11:52:00,
2013-03-15 08:02:00,28.0,23.0,29.82,West,260,9.0,-999.0,79,-99.99,,,-99.99,,2013-03-15 12:02:00,
2013-03-15 08:12:00,28.0,23.0,29.80,WSW,250,8.0,-999.0,79,-99.99,,,-99.99,,2013-03-15 12:12:00,
2013-03-15 08:23:00,30.0,25.0,29.79,West,260,10.0,16.0,80,-99.99,,,-99.99,,2013-03-15 12:23:00,
2013-03-15 08:32:00,30.0,25.0,29.79,West,260,13.0,18.0,80,-99.99,,,-99.99,,2013-03-15 12:32:00,
2013-03-15 08:42:00,30.0,25.0,29.79,West,260,14.0,18.0,80,-99.99,,,-99.99,,2013-03-15 12:42:00,
2013-03-15 08:52:00,34.0,27.0,29.78,West,270,17.0,25.0,74,-99.99,,,-99.99,,2013-03-15 12:52:00,
2013-03-15 09:02:00,34.0,27.0,29.78,West,270,17.0,25.0,74,-99.99,,,-99.99,,2013-03-15 13:02:00,
2013-03-15 09:12:00,34.0,27.0,29.78,West,270,13.0,29.0,74,-99.99,,,-99.99,,2013-03-15 13:12:00,
2013-03-15 09:22:00,34.0,28.0,29.77,West,270,18.0,25.0,80,-99.99,,,-99.99,,2013-03-15 13:22:00,
2013-03-15 09:32:00,34.0,28.0,29.77,West,270,16.0,29.0,80,-99.99,,,-99.99,,2013-03-15 13:32:00,
2013-03-15 09:42:00,34.0,28.0,29.77,West,280,22.0,30.0,80,-99.99,,,-99.99,,2013-03-15 13:42:00,
2013-03-15 09:52:00,34.0,28.0,29.76,West,260,22.0,28.0,80,-99.99,,,-99.99,,2013-03-15 13:52:00,
2013-03-15 10:02:00,34.0,28.0,29.76,West,260,22.0,28.0,80,-99.99,,,-99.99,,2013-03-15 14:02:00,
2013-03-15 10:12:00,34.0,30.0,29.76,West,260,16.0,29.0,86,-99.99,,,-99.99,,2013-03-15 14:12:00,
2013-03-15 10:22:00,34.0,30.0,29.76,West,270,16.0,30.0,86,-99.99,,,-99.99,,2013-03-15 14:22:00,
2013-03-15 10:32:00,34.0,30.0,29.75,West,270,23.0,30.0,86,-99.99,,,-99.99,,2013-03-15 14:32:00,
2013-03-15 10:42:00,34.0,30.0,29.75,West,280,17.0,30.0,86,-99.99,,,-99.99,,2013-03-15 14:42:00,
2013-03-15 10:52:00,34.0,32.0,29.74,West,270,20.0,29.0,93,-99.99,,,-99.99,,2013-03-15 14:52:00,
2013-03-15 11:02:00,34.0,32.0,29.74,West,270,20.0,29.0,93,-99.99,,,-99.99,,2013-03-15 15:02:00,
2013-03-15 11:13:00,34.0,32.0,29.74,West,280,22.0,27.0,93,-99.99,,,-99.99,,2013-03-15 15:13:00,
2013-03-15 11:23:00,34.0,34.0,29.74,West,270,16.0,25.0,100,-99.99,,,-99.99,,2013-03-15 15:23:00,
2013-03-15 11:33:00,34.0,34.0,29.74,WNW,290,15.0,25.0,100,-99.99,,,-99.99,,2013-03-15 15:33:00,
2013-03-15 11:42:00,34.0,34.0,29.74,West,280,16.0,23.0,100,-99.99,,,-99.99,,2013-03-15 15:42:00,
2013-03-15 11:52:00,34.0,34.0,29.74,WNW,290,15.0,20.0,100,-99.99,,,-99.99,,2013-03-15 15:52:00,
2013-03-15 12:03:00,34.0,34.0,29.74,WNW,290,15.0,20.0,100,-99.99,,,-99.99,,2013-03-15 16:03:00,
2013-03-15 12:12:00,34.0,34.0,29.74,West,280,14.0,21.0,100,-99.99,,,-99.99,,2013-03-15 16:12:00,
2013-03-15 12:23:00,34.0,34.0,29.73,West,280,16.0,24.0,100,-99.99,,,-99.99,,2013-03-15 16:23:00,
2013-03-15 12:32:00,34.0,34.0,29.73,West,280,17.0,23.0,100,-99.99,,,-99.99,,2013-03-15 16:32:00,
2013-03-15 12:42:00,34.0,34.0,29.73,WNW,290,14.0,23.0,100,-99.99,,,-99.99,,2013-03-15 16:42:00,
2013-03-15 12:52:00,34.0,34.0,29.73,WNW,290,14.0,24.0,100,-99.99,,,-99.99,,2013-03-15 16:52:00,
2013-03-15 13:02:00,34.0,34.0,29.73,WNW,290,14.0,24.0,100,-99.99,,,-99.99,,2013-03-15 17:02:00,
2013-03-15 13:12:00,34.0,34.0,29.73,West,280,17.0,24.0,100,-99.99,,,-99.99,,2013-03-15 17:12:00,
2013-03-15 13:22:00,34.0,34.0,29.72,West,280,13.0,27.0,100,-99.99,,,-99.99,,2013-03-15 17:22:00,
2013-03-15 13:32:00,34.0,34.0,29.72,West,280,13.0,-999.0,100,-99.99,,,-99.99,,2013-03-15 17:32:00,
2013-03-15 13:42:00,34.0,34.0,29.72,WNW,290,13.0,23.0,100,-99.99,,,-99.99,,2013-03-15 17:42:00,
2013-03-15 13:52:00,34.0,34.0,29.72,WNW,290,14.0,23.0,100,-99.99,,,-99.99,,2013-03-15 17:52:00,
2013-03-15 14:03:00,34.0,34.0,29.72,WNW,290,14.0,23.0,100,-99.99,,,-99.99,,2013-03-15 18:03:00,
2013-03-15 14:12:00,34.0,34.0,29.71,WNW,290,16.0,29.0,100,-99.99,,,-99.99,,2013-03-15 18:12:00,
2013-03-15 14:22:00,34.0,32.0,29.71,West,280,20.0,29.0,93,-99.99,,,-99.99,,2013-03-15 18:22:00,
2013-03-15 14:32:00,34.0,32.0,29.71,WNW,290,17.0,27.0,93,-99.99,,,-99.99,,2013-03-15 18:32:00,
2013-03-15 14:42:00,34.0,34.0,29.71,WNW,290,21.0,27.0,100,-99.99,,,-99.99,,2013-03-15 18:42:00,
2013-03-15 14:52:00,34.0,32.0,29.70,WNW,290,16.0,28.0,93,-99.99,,,-99.99,,2013-03-15 18:52:00,
2013-03-15 15:02:00,34.0,32.0,29.70,WNW,290,16.0,28.0,93,-99.99,,,-99.99,,2013-03-15 19:02:00,
2013-03-15 15:12:00,34.0,32.0,29.70,WNW,290,15.0,24.0,93,-99.99,,,-99.99,,2013-03-15 19:12:00,
2013-03-15 15:22:00,34.0,34.0,29.70,WNW,290,18.0,24.0,100,-99.99,,,-99.99,,2013-03-15 19:22:00,
2013-03-15 15:32:00,36.0,34.0,29.70,WNW,290,17.0,27.0,93,-99.99,,,-99.99,,2013-03-15 19:32:00,
2013-03-15 15:42:00,36.0,34.0,29.70,WNW,290,21.0,25.0,93,-99.99,,,-99.99,,2013-03-15 19:42:00,
2013-03-15 15:52:00,36.0,34.0,29.70,WNW,290,20.0,25.0,93,-99.99,,,-99.99,,2013-03-15 19:52:00,
2013-03-15 16:02:00,36.0,34.0,29.70,WNW,290,20.0,25.0,93,-99.99,,,-99.99,,2013-03-15 20:02:00,
2013-03-15 16:12:00,36.0,34.0,29.70,WNW,290,17.0,25.0,93,-99.99,,,-99.99,,2013-03-15 20:12:00,
2013-03-15 16:22:00,37.0,34.0,29.71,West,280,20.0,32.0,86,-99.99,,,-99.99,,2013-03-15 20:22:00,
2013-03-15 16:32:00,37.0,34.0,29.70,West,280,20.0,27.0,86,-99.99,,,-99.99,,2013-03-15 20:32:00,
2013-03-15 16:42:00,36.0,32.0,29.71,West,280,17.0,27.0,86,-99.99,,,-99.99,,2013-03-15 20:42:00,
2013-03-15 16:52:00,36.0,32.0,29.71,WNW,290,20.0,32.0,86,-99.99,,,-99.99,,2013-03-15 20:52:00,
2013-03-15 17:02:00,36.0,32.0,29.71,WNW,290,20.0,32.0,86,-99.99,,,-99.99,,2013-03-15 21:02:00,
2013-03-15 17:12:00,39.0,34.0,29.71,WNW,300,22.0,30.0,80,-99.99,,,-99.99,,2013-03-15 21:12:00,
2013-03-15 17:22:00,37.0,34.0,29.71,WNW,290,18.0,27.0,86,-99.99,,,-99.99,,2013-03-15 21:22:00,
2013-03-15 17:33:00,39.0,34.0,29.71,WNW,290,16.0,29.0,80,-99.99,,,-99.99,,2013-03-15 21:33:00,
2013-03-15 17:43:00,37.0,32.0,29.71,WNW,290,23.0,33.0,80,-99.99,,,-99.99,,2013-03-15 21:43:00,
2013-03-15 17:52:00,36.0,30.0,29.72,WNW,290,16.0,33.0,80,-99.99,,,-99.99,,2013-03-15 21:52:00,
2013-03-15 18:04:00,36.0,30.0,29.72,WNW,290,16.0,33.0,80,-99.99,,,-99.99,,2013-03-15 22:04:00,
2013-03-15 18:13:00,36.0,32.0,29.72,West,280,18.0,27.0,86,-99.99,,,-99.99,,2013-03-15 22:13:00,
2013-03-15 18:22:00,36.0,32.0,29.73,WNW,290,16.0,27.0,86,-99.99,,,-99.99,,2013-03-15 22:22:00,
2013-03-15 18:32:00,36.0,32.0,29.73,WNW,290,14.0,28.0,86,-99.99,,,-99.99,,2013-03-15 22:32:00,
2013-03-15 18:42:00,36.0,32.0,29.73,WNW,290,16.0,24.0,86,-99.99,,,-99.99,,2013-03-15 22:42:00,
2013-03-15 18:52:00,36.0,30.0,29.73,West,280,18.0,27.0,80,-99.99,,,-99.99,,2013-03-15 22:52:00,
2013-03-15 19:03:00,36.0,30.0,29.73,West,280,18.0,27.0,80,-99.99,,,-99.99,,2013-03-15 23:03:00,
2013-03-15 19:12:00,34.0,30.0,29.74,WNW,290,16.0,20.0,86,-99.99,,,-99.99,,2013-03-15 23:12:00,
2013-03-15 19:22:00,34.0,30.0,29.75,WNW,290,14.0,21.0,86,-99.99,,,-99.99,,2013-03-15 23:22:00,
2013-03-15 19:32:00,34.0,30.0,29.75,WNW,290,10.0,27.0,86,-99.99,,,-99.99,,2013-03-15 23:32:00,
2013-03-15 19:42:00,34.0,30.0,29.75,WNW,290,15.0,22.0,86,-99.99,,,-99.99,,2013-03-15 23:42:00,
2013-03-15 19:52:00,34.0,30.0,29.76,WNW,290,14.0,20.0,86,-99.99,,,-99.99,,2013-03-15 23:52:00,
2013-03-15 20:03:00,34.0,30.0,29.76,WNW,290,14.0,20.0,86,-99.99,,,-99.99,,2013-03-16 00:03:00,
2013-03-15 20:12:00,34.0,30.0,29.76,WNW,300,12.0,17.0,86,-99.99,,,-99.99,,2013-03-16 00:12:00,
2013-03-15 20:22:00,34.0,30.0,29.77,WNW,300,12.0,18.0,86,-99.99,,,-99.99,,2013-03-16 00:22:00,
2013-03-15 20:32:00,34.0,30.0,29.77,WNW,300,14.0,18.0,86,-99.99,,,-99.99,,2013-03-16 00:32:00,
2013-03-15 20:42:00,34.0,30.0,29.78,WNW,300,12.0,-999.0,86,-99.99,,,-99.99,,2013-03-16 00:42:00,
2013-03-15 20:52:00,34.0,30.0,29.78,NW,310,12.0,-999.0,86,-99.99,,,-99.99,,2013-03-16 00:52:00,
2013-03-15 21:03:00,34.0,30.0,29.78,NW,310,12.0,-999.0,86,-99.99,,,-99.99,,2013-03-16 01:03:00,
2013-03-15 21:12:00,34.0,28.0,29.79,NW,320,14.0,22.0,80,-99.99,,,-99.99,,2013-03-16 01:12:00,
2013-03-15 21:22:00,34.0,27.0,29.80,NW,310,13.0,22.0,74,-99.99,,,-99.99,,2013-03-16 01:22:00,
2013-03-15 21:32:00,34.0,27.0,29.80,NW,310,14.0,21.0,74,-99.99,,,-99.99,,2013-03-16 01:32:00,
2013-03-15 21:42:00,34.0,27.0,29.80,NW,310,13.0,21.0,74,-99.99,,,-99.99,,2013-03-16 01:42:00,
2013-03-15 21:52:00,34.0,27.0,29.81,NW,310,14.0,20.0,74,-99.99,,,-99.99,,2013-03-16 01:52:00,
2013-03-15 22:02:00,34.0,27.0,29.81,NW,310,14.0,20.0,74,-99.99,,,-99.99,,2013-03-16 02:02:00,
2013-03-15 22:12:00,34.0,27.0,29.82,NW,310,13.0,17.0,74,-99.99,,,-99.99,,2013-03-16 02:12:00,
2013-03-15 22:23:00,34.0,27.0,29.82,NW,310,12.0,18.0,74,-99.99,,,-99.99,,2013-03-16 02:23:00,
2013-03-15 22:32:00,34.0,27.0,29.82,NW,310,13.0,22.0,74,-99.99,,,-99.99,,2013-03-16 02:32:00,
2013-03-15 22:42:00,34.0,28.0,29.83,NW,320,10.0,20.0,80,-99.99,,,-99.99,,2013-03-16 02:42:00,
2013-03-15 22:52:00,30.0,27.0,29.83,NNW,340,14.0,22.0,86,-99.99,,,-99.99,,2013-03-16 02:52:00,
2013-03-15 23:02:00,30.0,27.0,29.83,NNW,340,14.0,22.0,86,-99.99,,,-99.99,,2013-03-16 03:02:00,
2013-03-15 23:12:00,30.0,27.0,29.84,NNW,330,13.0,18.0,86,-99.99,,,-99.99,,2013-03-16 03:12:00,
2013-03-15 23:22:00,30.0,27.0,29.85,NW,320,12.0,20.0,86,-99.99,,,-99.99,,2013-03-16 03:22:00,
2013-03-15 23:32:00,30.0,27.0,29.85,NNW,330,10.0,-999.0,86,-99.99,,,-99.99,,2013-03-16 03:32:00,
2013-03-15 23:43:00,30.0,27.0,29.85,NNW,330,9.0,-999.0,86,-99.99,,,-99.99,,2013-03-16 03:43:00,
2013-03-15 23:52:00,30.0,25.0,29.85,NNW,340,9.0,-999.0,80,-99.99,,,-99.99,,2013-03-16 03:52:00,